SL-16 DEB, 39873

Orbit data source: Space-Track

SL-16 DEB, 39873 is space debris in LEO originally from a launch on Fri, 26 Mar 1993 UTC launched from the Tyuratam Missile And Space Complex (TTMTR). Debris objects in space refer to the collection of defunct objects orbiting the Earth. Examples of debris include non-operational satellites, rocket bodies, and fragments generated from explosions, collisions, or faulty payload assembly.

Loading next visibility...
Identifier
39873, 1993-016AX
Orbit
LEO
Country
Flag of CISCIS
Related business
Manufacturer
Unknown
Mission
Spacecraft
Bus & Motor
Unknown
Mass
Unknown
Launch date (UTC)
1993-03-26 (33 years ago)
Launch vehicle
Unknown
Launch site
Tyuratam Missile And Space Complex (TTMTR)
Object type
Payload
Rocket body
Debris
Shape & HBR
Unknown shape, 0.1 m
Radar Cross Section
Small (<0.1 m²)

Expand to show TLE details & history
Last TLE update: 5 days ago

TLE from 5 days ago
0 SL-16 DEB
1 39873U 93016AX  26032.89280672  .00004420  00000-0  12691-2 0  9995
2 39873  70.3856 122.5674 0079548 355.6873   4.3565 14.43620507605891
Epoch: 2026-02-01T21:25Z
TLE epoch observation values (Epoch: 2026-02-01T21:25:38.500Z)
Latitude
0.00002°
Longitude
29.06107°
Altitude
692.435 km
Speed
7.54 km/s
True Right ascension
08h 10m 16s
True Declination
0° 00' 00"
Sunlit
Object was in full shadow at epoch
Visualization orbit readout
Latitude
Unknown
Longitude
Unknown
Altitude
Unknown
Speed
Unknown
Apparent Right ascension
Unknown
Apparent Declination
Unknown
Sunlit
N/A
Visualization observer readout
Local Sidereal Time
04:29:23
Azimuth
Unknown
Elevation
Unknown
Doppler factor
Unknown
Orbital elements
Apogee altitude
801.179 km
Perigee altitude
687.861 km
Semi-major axis
7,122.657 km
Eccentricity
0.00795
Inclination
70.3856°
RAAN
122.5674°
Arg. of periapsis
355.6873°
True anomaly
4.42644°
Mean anomaly
4.3565°
Eccentric anomaly
4.3914°
Mean motion
3.61061 °/min
Orbital period
99.71 mins
BSTAR
0.0012691
Loading maneuver chart data...
Computing Atmospheric mass density...
Loading historical data...
Loading historical data...
Loading historical data...
Loading historical data...
Loading historical data...
Loading historical data...
Loading historical data...

Documentation

Showing up to 5 results
|